CCM66GI LFML-LFKJ

Flight info

Callsign CCM66GI
Flight time 1h 5m
Altitude 23000
Route TINOT Z154 RUBAS
Aircraft A320/M-SDE3FGHIRWY/LB1

Departure

Time 2026-04-28 20:30
Airport Marseille Provence Airport (LFML)

Arrival

Time 2026-04-28 21:35
Airport Ajaccio Napoléon Bonaparte airport (LFKJ)
Time Latitude Longitude Altitude Speed Heading
2026-04-28 19:57 43.43882 5.22463 47 ft 0 kts 265°
2026-04-28 20:22 43.43883 5.22480 47 ft 3 kts 265°
2026-04-28 20:22 43.43884 5.22507 44 ft 3 kts 265°
2026-04-28 20:22 43.43885 5.22529 42 ft 3 kts 246°
2026-04-28 20:23 43.43892 5.22541 44 ft 3 kts 173°
2026-04-28 20:23 43.43908 5.22535 43 ft 1 kts 164°
2026-04-28 20:25 43.43883 5.22545 43 ft 15 kts 164°
2026-04-28 20:25 43.43765 5.22478 49 ft 21 kts 254°
2026-04-28 20:25 43.43732 5.22305 47 ft 19 kts 264°
2026-04-28 20:26 43.43700 5.22144 46 ft 18 kts 241°
2026-04-28 20:26 43.43762 5.22001 43 ft 21 kts 326°
2026-04-28 20:26 43.43881 5.21842 38 ft 26 kts 314°
2026-04-28 20:26 43.43977 5.21647 34 ft 23 kts 254°
2026-04-28 20:27 43.43942 5.21454 32 ft 24 kts 308°
2026-04-28 20:27 43.44057 5.21292 27 ft 26 kts 314°
2026-04-28 20:27 43.44196 5.21092 22 ft 34 kts 314°
2026-04-28 20:27 43.44343 5.20812 19 ft 37 kts 304°
2026-04-28 20:28 43.44522 5.20559 18 ft 37 kts 313°
2026-04-28 20:28 43.44678 5.20330 17 ft 15 kts 297°
2026-04-28 20:28 43.44625 5.20225 18 ft 15 kts 221°
2026-04-28 20:28 43.44567 5.20221 19 ft 4 kts 123°
2026-04-28 20:29 43.44553 5.20243 19 ft 3 kts 132°
2026-04-28 20:29 43.44434 5.20412 19 ft 61 kts 134°
2026-04-28 20:29 43.43976 5.21067 27 ft 125 kts 134°
2026-04-28 20:29 43.43255 5.22094 107 ft 166 kts 135°
2026-04-28 20:30 43.42431 5.23125 835 ft 158 kts 146°
2026-04-28 20:30 43.41490 5.23894 1577 ft 155 kts 149°
2026-04-28 20:30 43.40539 5.24631 2175 ft 164 kts 148°
2026-04-28 20:30 43.39521 5.25495 2584 ft 183 kts 147°
2026-04-28 20:31 43.38390 5.26481 2959 ft 206 kts 146°
2026-04-28 20:31 43.37094 5.27622 3315 ft 234 kts 146°
2026-04-28 20:31 43.35656 5.28905 3835 ft 256 kts 146°
2026-04-28 20:31 43.34139 5.30263 4733 ft 260 kts 146°
2026-04-28 20:32 43.32621 5.31607 5733 ft 260 kts 147°
2026-04-28 20:32 43.30989 5.32676 6575 ft 267 kts 165°
2026-04-28 20:32 43.29123 5.32913 7429 ft 272 kts 179°
2026-04-28 20:32 43.27213 5.32938 8241 ft 276 kts 179°
2026-04-28 20:33 43.25280 5.32962 9115 ft 280 kts 179°
2026-04-28 20:33 43.23317 5.32993 9944 ft 284 kts 180°
2026-04-28 20:33 43.21990 5.33018 10354 ft 293 kts 180°
2026-04-28 20:33 43.19146 5.33080 10706 ft 323 kts 180°
2026-04-28 20:34 43.17623 5.33116 11026 ft 331 kts 179°
2026-04-28 20:34 43.16650 5.33092 11561 ft 298 kts 190°
2026-04-28 20:35 43.14816 5.32551 13594 ft 272 kts 192°
2026-04-28 20:35 43.12824 5.32343 13817 ft 297 kts 179°
2026-04-28 20:35 43.10707 5.32543 13968 ft 321 kts 175°
2026-04-28 20:35 43.08408 5.32874 14123 ft 342 kts 175°
2026-04-28 20:36 43.06006 5.33182 14599 ft 350 kts 176°
2026-04-28 20:36 43.03546 5.33408 15179 ft 356 kts 178°
2026-04-28 20:36 43.01055 5.33616 15802 ft 360 kts 173°
2026-04-28 20:36 42.98629 5.34645 16225 ft 374 kts 153°
2026-04-28 20:37 42.96555 5.36873 16702 ft 386 kts 132°
2026-04-28 20:37 42.95021 5.39871 17239 ft 393 kts 124°
2026-04-28 20:37 42.93497 5.43072 17406 ft 410 kts 125°
2026-04-28 20:37 42.91922 5.46373 17789 ft 417 kts 125°
2026-04-28 20:38 42.90359 5.49632 18907 ft 403 kts 125°
2026-04-28 20:38 42.88831 5.52807 19741 ft 399 kts 126°
2026-04-28 20:38 42.87293 5.55987 20340 ft 401 kts 126°
2026-04-28 20:38 42.85750 5.59167 20902 ft 404 kts 126°
2026-04-28 20:39 42.84193 5.62374 21449 ft 407 kts 126°
2026-04-28 20:39 42.82625 5.65606 21986 ft 410 kts 126°
2026-04-28 20:39 42.81041 5.68865 22515 ft 414 kts 126°
2026-04-28 20:39 42.79445 5.72145 22927 ft 417 kts 126°
2026-04-28 20:40 42.77844 5.75441 23032 ft 416 kts 126°
2026-04-28 20:40 42.76267 5.78686 23044 ft 415 kts 126°
2026-04-28 20:40 42.74673 5.81966 23043 ft 414 kts 126°
2026-04-28 20:40 42.73081 5.85241 23043 ft 414 kts 126°
2026-04-28 20:41 42.71489 5.88509 23043 ft 414 kts 126°
2026-04-28 20:41 42.70489 5.90479 23105 ft 414 kts 128°
2026-04-28 20:42 42.68851 5.93703 23027 ft 414 kts 127°
2026-04-28 20:42 42.67253 5.96958 23029 ft 414 kts 126°
2026-04-28 20:42 42.65674 6.00239 23029 ft 414 kts 126°
2026-04-28 20:42 42.64097 6.03530 23033 ft 414 kts 126°
2026-04-28 20:43 42.62517 6.06802 23033 ft 414 kts 126°
2026-04-28 20:43 42.60949 6.10023 23021 ft 414 kts 126°
2026-04-28 20:43 42.59349 6.13299 23020 ft 415 kts 126°
2026-04-28 20:43 42.57753 6.16552 23029 ft 414 kts 126°
2026-04-28 20:44 42.56155 6.19795 23036 ft 414 kts 126°
2026-04-28 20:44 42.54545 6.23049 23036 ft 414 kts 126°
2026-04-28 20:44 42.52941 6.26288 23038 ft 414 kts 126°
2026-04-28 20:44 42.51332 6.29531 23041 ft 414 kts 126°
2026-04-28 20:45 42.49726 6.32765 23038 ft 414 kts 126°
2026-04-28 20:45 42.48120 6.36006 23034 ft 414 kts 126°
2026-04-28 20:45 42.46526 6.39260 23031 ft 415 kts 126°
2026-04-28 20:45 42.44928 6.42524 23027 ft 415 kts 126°
2026-04-28 20:46 42.43346 6.45810 23027 ft 415 kts 126°
2026-04-28 20:46 42.41760 6.49020 23025 ft 414 kts 127°
2026-04-28 20:46 42.40123 6.52239 23038 ft 414 kts 127°
2026-04-28 20:46 42.38479 6.55430 23044 ft 413 kts 127°
2026-04-28 20:47 42.36985 6.58755 23045 ft 415 kts 120°
2026-04-28 20:47 42.35638 6.62212 23046 ft 415 kts 120°
2026-04-28 20:47 42.34303 6.65667 23045 ft 414 kts 120°
2026-04-28 20:47 42.32973 6.69131 23045 ft 414 kts 120°
2026-04-28 20:48 42.31637 6.72612 23030 ft 423 kts 120°
2026-04-28 20:48 42.30263 6.76175 23030 ft 428 kts 120°
2026-04-28 20:48 42.28899 6.79701 23029 ft 429 kts 120°
2026-04-28 20:48 42.27514 6.83277 23029 ft 430 kts 120°
2026-04-28 20:49 42.26125 6.86860 23036 ft 429 kts 120°
2026-04-28 20:49 42.24744 6.90423 23035 ft 428 kts 120°
2026-04-28 20:49 42.23358 6.93991 23035 ft 428 kts 120°
2026-04-28 20:49 42.21973 6.97548 23035 ft 428 kts 120°
2026-04-28 20:50 42.20587 7.01100 23038 ft 428 kts 120°
2026-04-28 20:50 42.19190 7.04676 23038 ft 428 kts 120°
2026-04-28 20:50 42.17816 7.08187 23033 ft 428 kts 120°
2026-04-28 20:50 42.16428 7.11737 23035 ft 428 kts 120°
2026-04-28 20:51 42.15034 7.15303 23037 ft 428 kts 120°
2026-04-28 20:51 42.13643 7.18857 23035 ft 428 kts 120°
2026-04-28 20:51 42.12250 7.22406 23035 ft 428 kts 120°
2026-04-28 20:51 42.11329 7.24752 23035 ft 428 kts 120°
2026-04-28 20:52 42.09477 7.29458 23035 ft 428 kts 120°
2026-04-28 20:52 42.08074 7.33011 23035 ft 428 kts 120°
2026-04-28 20:52 42.06683 7.36540 22877 ft 420 kts 120°
2026-04-28 20:52 42.05336 7.39956 22609 ft 408 kts 120°
2026-04-28 20:53 42.02725 7.46554 22079 ft 392 kts 121°
2026-04-28 20:53 42.01467 7.49726 21705 ft 386 kts 121°
2026-04-28 20:53 42.00204 7.52902 21240 ft 383 kts 121°
2026-04-28 20:54 41.98949 7.56058 20754 ft 381 kts 121°
2026-04-28 20:54 41.97696 7.59208 20271 ft 379 kts 121°
2026-04-28 20:54 41.96454 7.62326 19781 ft 377 kts 121°
2026-04-28 20:54 41.95233 7.65386 19304 ft 375 kts 121°
2026-04-28 20:55 41.94003 7.68469 18804 ft 374 kts 120°
2026-04-28 20:55 41.92907 7.71618 18543 ft 368 kts 109°
2026-04-28 20:55 41.92477 7.74962 18394 ft 360 kts 95°
2026-04-28 20:55 41.92367 7.78280 18129 ft 347 kts 94°
2026-04-28 20:56 41.92280 7.81407 17865 ft 329 kts 94°
2026-04-28 20:56 41.92209 7.84410 17598 ft 313 kts 93°
2026-04-28 20:56 41.92153 7.87275 17335 ft 299 kts 94°
2026-04-28 20:56 41.92088 7.90023 17074 ft 288 kts 94°
2026-04-28 20:57 41.92014 7.92693 16819 ft 285 kts 94°
2026-04-28 20:57 41.91935 7.95343 16564 ft 283 kts 94°
2026-04-28 20:57 41.91856 7.97982 16282 ft 284 kts 94°
2026-04-28 20:57 41.91779 8.00642 15898 ft 286 kts 94°
2026-04-28 20:58 41.91703 8.03319 15538 ft 288 kts 94°
2026-04-28 20:58 41.91626 8.06024 15170 ft 290 kts 94°
2026-04-28 20:58 41.91546 8.08706 14814 ft 292 kts 94°
2026-04-28 20:58 41.91464 8.11441 14457 ft 294 kts 94°
2026-04-28 20:59 41.91384 8.14193 14103 ft 296 kts 94°
2026-04-28 20:59 41.91301 8.16963 13740 ft 297 kts 94°
2026-04-28 20:59 41.91217 8.19737 13225 ft 295 kts 94°
2026-04-28 20:59 41.91133 8.22472 12708 ft 291 kts 94°
2026-04-28 21:00 41.91049 8.25167 12198 ft 287 kts 94°
2026-04-28 21:00 41.90968 8.27823 11699 ft 283 kts 94°
2026-04-28 21:00 41.90887 8.30444 11203 ft 279 kts 94°
2026-04-28 21:00 41.90808 8.33030 10718 ft 275 kts 94°
2026-04-28 21:01 41.90729 8.35581 10234 ft 272 kts 94°
2026-04-28 21:01 41.90651 8.38095 9744 ft 268 kts 95°
2026-04-28 21:01 41.90572 8.40576 9225 ft 264 kts 95°
2026-04-28 21:01 41.90492 8.43022 8711 ft 260 kts 95°
2026-04-28 21:02 41.90413 8.45430 8209 ft 256 kts 95°
2026-04-28 21:02 41.90335 8.47806 7700 ft 252 kts 95°
2026-04-28 21:02 41.90258 8.50135 7217 ft 248 kts 95°
2026-04-28 21:02 41.90182 8.52402 7034 ft 240 kts 96°
2026-04-28 21:03 41.90107 8.54605 7023 ft 238 kts 96°
2026-04-28 21:03 41.90030 8.56833 7025 ft 238 kts 96°
2026-04-28 21:03 41.89955 8.59058 7027 ft 238 kts 96°
2026-04-28 21:03 41.89874 8.61286 7027 ft 238 kts 99°
2026-04-28 21:04 41.89361 8.63364 6661 ft 237 kts 131°
2026-04-28 21:04 41.88201 8.64674 6442 ft 225 kts 155°
2026-04-28 21:04 41.86756 8.65249 6165 ft 217 kts 178°
2026-04-28 21:04 41.85276 8.65007 6026 ft 215 kts 199°
2026-04-28 21:05 41.83980 8.64000 6026 ft 218 kts 221°
2026-04-28 21:05 41.83077 8.62355 6026 ft 222 kts 244°
2026-04-28 21:05 41.82743 8.60321 6026 ft 227 kts 268°
2026-04-28 21:05 41.83080 8.58241 6025 ft 233 kts 293°
2026-04-28 21:06 41.84054 8.56491 6027 ft 238 kts 313°
2026-04-28 21:06 41.85241 8.54970 6025 ft 239 kts 315°
2026-04-28 21:06 41.86472 8.53468 6025 ft 239 kts 315°
2026-04-28 21:06 41.87710 8.51975 6024 ft 239 kts 315°
2026-04-28 21:07 41.88952 8.50477 6027 ft 240 kts 315°
2026-04-28 21:07 41.90190 8.48976 6026 ft 240 kts 316°
2026-04-28 21:07 41.91602 8.47813 6021 ft 242 kts 343°
2026-04-28 21:07 41.93276 8.47713 6024 ft 243 kts 15°
2026-04-28 21:08 41.94759 8.48746 6025 ft 241 kts 46°
2026-04-28 21:08 41.95655 8.50589 6025 ft 236 kts 76°
2026-04-28 21:08 41.95773 8.52733 6025 ft 229 kts 105°
2026-04-28 21:08 41.95146 8.54652 6026 ft 223 kts 132°
2026-04-28 21:09 41.94060 8.56133 6027 ft 223 kts 140°
2026-04-28 21:09 41.92920 8.57541 6027 ft 223 kts 140°
2026-04-28 21:09 41.91768 8.58938 6027 ft 223 kts 140°
2026-04-28 21:09 41.90603 8.60349 5712 ft 226 kts 140°
2026-04-28 21:10 41.89412 8.61674 5458 ft 219 kts 153°
2026-04-28 21:10 41.87977 8.62214 5133 ft 215 kts 181°
2026-04-28 21:10 41.86552 8.61726 5004 ft 215 kts 210°
2026-04-28 21:10 41.85473 8.60333 5002 ft 221 kts 238°
2026-04-28 21:11 41.85063 8.58347 5006 ft 227 kts 269°
2026-04-28 21:11 41.85497 8.56315 5004 ft 233 kts 302°
2026-04-28 21:11 41.86633 8.54745 5008 ft 236 kts 317°
2026-04-28 21:11 41.87859 8.53273 5005 ft 237 kts 316°
2026-04-28 21:12 41.89076 8.51781 5005 ft 237 kts 316°
2026-04-28 21:12 41.90290 8.50281 5004 ft 237 kts 315°
2026-04-28 21:12 41.91657 8.49062 4998 ft 238 kts 343°
2026-04-28 21:12 41.93289 8.48996 5005 ft 237 kts 18°
2026-04-28 21:13 41.94663 8.50129 5003 ft 233 kts 52°
2026-04-28 21:13 41.95363 8.52032 5000 ft 227 kts 85°
2026-04-28 21:13 41.95216 8.54095 5001 ft 221 kts 116°
2026-04-28 21:13 41.94692 8.55254 5007 ft 218 kts 135°
2026-04-28 21:14 41.93592 8.56663 5007 ft 219 kts 139°
2026-04-28 21:14 41.92097 8.58492 4901 ft 221 kts 140°
2026-04-28 21:14 41.91330 8.59426 4732 ft 219 kts 139°
2026-04-28 21:14 41.90211 8.60793 4478 ft 218 kts 139°
2026-04-28 21:15 41.88972 8.61925 4220 ft 215 kts 162°
2026-04-28 21:15 41.87505 8.62074 4048 ft 215 kts 192°
2026-04-28 21:15 41.86178 8.61162 4005 ft 219 kts 223°
2026-04-28 21:15 41.85404 8.59404 4005 ft 225 kts 255°
2026-04-28 21:16 41.85477 8.57318 4006 ft 230 kts 290°
2026-04-28 21:16 41.86406 8.55576 4010 ft 233 kts 318°
2026-04-28 21:16 41.87627 8.54116 4006 ft 235 kts 317°
2026-04-28 21:16 41.88836 8.52644 4005 ft 235 kts 317°
2026-04-28 21:17 41.90040 8.51167 4004 ft 235 kts 316°
2026-04-28 21:17 41.91310 8.49800 3996 ft 234 kts 335°
2026-04-28 21:17 41.92863 8.49429 4002 ft 232 kts 11°
2026-04-28 21:17 41.94319 8.50315 4004 ft 228 kts 46°
2026-04-28 21:18 41.95130 8.52079 4005 ft 222 kts 79°
2026-04-28 21:18 41.95112 8.54078 4005 ft 217 kts 110°
2026-04-28 21:18 41.94320 8.55761 4008 ft 215 kts 138°
2026-04-28 21:18 41.93213 8.57120 4007 ft 216 kts 139°
2026-04-28 21:19 41.92102 8.58480 4007 ft 216 kts 139°
2026-04-28 21:19 41.90990 8.59841 4007 ft 216 kts 139°
2026-04-28 21:19 41.89874 8.61198 4006 ft 216 kts 141°
2026-04-28 21:19 41.88540 8.62070 4004 ft 215 kts 171°
2026-04-28 21:20 41.87063 8.61882 4004 ft 217 kts 202°
2026-04-28 21:20 41.85883 8.60645 4005 ft 221 kts 234°
2026-04-28 21:20 41.85389 8.58696 4005 ft 227 kts 268°
2026-04-28 21:20 41.85794 8.56656 4005 ft 231 kts 302°
2026-04-28 21:21 41.86934 8.55118 4008 ft 234 kts 319°
2026-04-28 21:21 41.88161 8.53667 4008 ft 235 kts 317°
2026-04-28 21:21 41.89366 8.52187 4006 ft 235 kts 316°
2026-04-28 21:21 41.90561 8.50700 4005 ft 234 kts 317°
2026-04-28 21:22 41.91960 8.49622 4001 ft 233 kts 349°
2026-04-28 21:22 41.93542 8.49793 4004 ft 230 kts 26°
2026-04-28 21:22 41.94748 8.51132 4006 ft 225 kts 61°
2026-04-28 21:22 41.95195 8.53093 4006 ft 220 kts 94°
2026-04-28 21:23 41.94785 8.55021 4007 ft 215 kts 126°
2026-04-28 21:23 41.93760 8.56471 4008 ft 216 kts 139°
2026-04-28 21:23 41.92650 8.57827 4008 ft 216 kts 139°
2026-04-28 21:23 41.91551 8.59170 4008 ft 216 kts 139°
2026-04-28 21:24 41.90439 8.60531 4008 ft 216 kts 139°
2026-04-28 21:24 41.89255 8.61767 4002 ft 215 kts 156°
2026-04-28 21:24 41.87803 8.62121 4006 ft 215 kts 186°
2026-04-28 21:24 41.86423 8.61376 4005 ft 219 kts 218°
2026-04-28 21:25 41.85542 8.59721 4005 ft 224 kts 250°
2026-04-28 21:25 41.85482 8.57637 4005 ft 229 kts 285°
2026-04-28 21:25 41.86314 8.55824 4008 ft 233 kts 316°
2026-04-28 21:25 41.87446 8.54434 4007 ft 235 kts 317°
2026-04-28 21:26 41.88658 8.52963 4008 ft 235 kts 317°
2026-04-28 21:26 41.89459 8.51990 4006 ft 235 kts 317°
2026-04-28 21:27 41.90744 8.50457 4005 ft 235 kts 321°
2026-04-28 21:27 41.92208 8.49561 4002 ft 233 kts 355°
2026-04-28 21:27 41.93751 8.49936 4005 ft 230 kts 32°
2026-04-28 21:28 41.94911 8.51359 4006 ft 226 kts 60°
2026-04-28 21:28 41.95442 8.53298 4006 ft 221 kts 88°
2026-04-28 21:28 41.95251 8.55310 4007 ft 217 kts 114°
2026-04-28 21:28 41.94415 8.56965 4007 ft 215 kts 140°
2026-04-28 21:29 41.93203 8.58138 4007 ft 215 kts 146°
2026-04-28 21:29 41.91964 8.59271 4007 ft 214 kts 146°
2026-04-28 21:29 41.90730 8.60393 4007 ft 214 kts 146°
2026-04-28 21:29 41.89535 8.61575 4005 ft 214 kts 133°
2026-04-28 21:30 41.88865 8.63333 4008 ft 216 kts 103°
2026-04-28 21:30 41.88659 8.65348 4009 ft 218 kts 97°
2026-04-28 21:30 41.88533 8.67372 3850 ft 217 kts 95°
2026-04-28 21:30 41.88763 8.69359 3533 ft 219 kts 65°
2026-04-28 21:31 41.89663 8.71012 3209 ft 221 kts 50°
2026-04-28 21:31 41.90848 8.72276 3028 ft 216 kts 29°
2026-04-28 21:31 41.92162 8.73136 3006 ft 203 kts 25°
2026-04-28 21:31 41.93398 8.73893 3027 ft 195 kts 27°
2026-04-28 21:32 41.94605 8.74627 2869 ft 187 kts 26°
2026-04-28 21:32 41.95762 8.75370 2666 ft 181 kts 27°
2026-04-28 21:32 41.96853 8.76102 2555 ft 171 kts 28°
2026-04-28 21:32 41.97907 8.76794 2380 ft 166 kts 29°
2026-04-28 21:33 41.98870 8.77565 2197 ft 157 kts 47°
2026-04-28 21:33 41.99200 8.78832 2102 ft 144 kts 99°
2026-04-28 21:33 41.98877 8.80142 1772 ft 154 kts 114°
2026-04-28 21:33 41.98353 8.81415 1502 ft 155 kts 123°
2026-04-28 21:34 41.97533 8.82303 1350 ft 153 kts 160°
2026-04-28 21:34 41.96456 8.82416 979 ft 164 kts 186°
2026-04-28 21:34 41.95357 8.82061 648 ft 162 kts 196°
2026-04-28 21:34 41.94354 8.81451 369 ft 153 kts 204°
2026-04-28 21:35 41.93414 8.80882 171 ft 146 kts 204°
2026-04-28 21:35 41.92516 8.80310 34 ft 132 kts 202°
2026-04-28 21:35 41.91807 8.79881 23 ft 87 kts 205°
2026-04-28 21:35 41.91410 8.79637 23 ft 39 kts 204°
2026-04-28 21:36 41.91261 8.79529 23 ft 13 kts 221°
2026-04-28 21:36 41.91254 8.79433 22 ft 10 kts 306°
2026-04-28 21:36 41.91310 8.79387 21 ft 9 kts 333°
2026-04-28 21:36 41.91363 8.79352 21 ft 8 kts 336°
2026-04-28 21:37 41.91418 8.79334 24 ft 8 kts 353°
2026-04-28 21:37 41.91467 8.79340 21 ft 6 kts 14°
2026-04-28 21:37 41.91542 8.79383 22 ft 20 kts 25°
2026-04-28 21:37 41.91676 8.79466 21 ft 22 kts 25°
2026-04-28 21:38 41.91795 8.79541 21 ft 10 kts 25°
2026-04-28 21:38 41.91821 8.79535 21 ft 3 kts 306°
2026-04-28 21:38 41.91822 8.79533 21 ft 0 kts 306°
2026-04-28 21:38 41.91833 8.79516 21 ft 2 kts 321°
2026-04-28 21:39 41.91843 8.79510 21 ft 1 kts 335°
2026-04-28 21:39 41.91848 8.79507 21 ft 0 kts 336°
2026-04-28 21:39 41.91849 8.79507 21 ft 0 kts 338°